Location: Potomac
(46.8816°N, 113.5795°W)
Time: 22:13:20
(UTC+00:00)

JY1SAT - Pass Details

Date: 28 June 2022
Orbit: 564 x 586 km, 97.6° (Epoch: 18 August)

Event Time Altitude Azimuth Distance (km) Brightness Sun altitude
Exits shadow 05:37:34 13° 202° (SSW) 1,737 ? -14.8°
Maximum altitude 05:40:52 33° 264° (W) 995 ? -15.1°
Drops below altitude 10° 05:44:40 10° 329° (NNW) 1,924 ? -15.4°
Sets 05:47:01 0° 339° (NNW) 2,829 ? -15.5°
